| time (UTC) | temp F | wind direction | speed MPH | gust MPH | rain 1hr in | rain 24hr in | rain mn in | humidity % | barometer mb |
| 20260901200710 | 59 | 312 | 0.0 | 0.0 | 0.00 | 0.03 | 0.03 | 84 | 1018.6 |
| 20260901195710 | 60 | 312 | 0.0 | 0.0 | 0.00 | 0.03 | 0.03 | 83 | 1018.6 |
| 20260901193710 | 61 | 312 | 0.0 | 0.0 | 0.00 | 0.03 | 0.03 | 82 | 1018.4 |
| 20260901192710 | 61 | 312 | 0.0 | 0.0 | 0.00 | 0.03 | 0.03 | 81 | 1018.4 |
| 20260901190710 | 63 | 312 | 0.0 | 0.0 | 0.00 | 0.03 | 0.03 | 79 | 1018.5 |
| 20260901185710 | 64 | 312 | 0.0 | 1.0 | 0.00 | 0.03 | 0.03 | 78 | 1018.4 |
| 20260901184710 | 65 | 312 | 0.0 | 2.0 | 0.00 | 0.03 | 0.03 | 75 | 1018.3 |
| 20260901183710 | 66 | 312 | 0.0 | 0.0 | 0.00 | 0.03 | 0.03 | 72 | 1018.3 |
| 20260901182710 | 66 | 312 | 0.0 | 1.0 | 0.00 | 0.03 | 0.03 | 72 | 1018.4 |
| 20260901181710 | 67 | 312 | 0.0 | 2.0 | 0.00 | 0.03 | 0.03 | 71 | 1018.5 |
| 20260901180711 | 67 | 312 | 0.0 | 1.0 | 0.00 | 0.03 | 0.03 | 68 | 1018.4 |
| 20260901175710 | 67 | 312 | 0.0 | 1.0 | 0.00 | 0.03 | 0.03 | 67 | 1018.4 |
| 20260901174710 | 68 | 312 | 1.0 | 2.0 | 0.00 | 0.03 | 0.03 | 67 | 1018.4 |
| 20260901173710 | 68 | 312 | 0.0 | 2.0 | 0.00 | 0.03 | 0.03 | 67 | 1018.4 |
| 20260901171710 | 68 | 312 | 1.0 | 3.0 | 0.00 | 0.03 | 0.03 | 64 | 1018.3 |
| 20260901170710 | 69 | 312 | 2.0 | 4.0 | 0.00 | 0.03 | 0.03 | 63 | 1018.3 |
| 20260901164710 | 69 | 313 | 2.0 | 4.0 | 0.00 | 0.03 | 0.03 | 63 | 1018.2 |
| 20260901163710 | 70 | 318 | 2.0 | 5.0 | 0.00 | 0.03 | 0.03 | 62 | 1018.3 |
| 20260901162710 | 70 | 320 | 2.0 | 4.0 | 0.00 | 0.03 | 0.03 | 62 | 1018.2 |
| 20260901160711 | 71 | 300 | 3.0 | 7.0 | 0.00 | 0.03 | 0.03 | 59 | 1018.2 |
| 20260901155711 | 72 | 326 | 3.0 | 5.0 | 0.00 | 0.03 | 0.03 | 59 | 1018.1 |
| 20260901154711 | 72 | 303 | 3.0 | 9.0 | 0.00 | 0.03 | 0.03 | 62 | 1018.0 |
| 20260901152711 | 72 | 293 | 2.0 | 6.0 | 0.00 | 0.03 | 0.03 | 60 | 1018.1 |
| 20260901151711 | 73 | 305 | 4.0 | 8.0 | 0.00 | 0.03 | 0.03 | 58 | 1018.0 |
| 20260901150711 | 72 | 309 | 3.0 | 6.0 | 0.00 | 0.03 | 0.03 | 62 | 1017.9 |
| 20260901145711 | 72 | 261 | 3.0 | 7.0 | 0.00 | 0.03 | 0.03 | 60 | 1018.0 |
| 20260901144711 | 73 | 252 | 3.0 | 8.0 | 0.00 | 0.03 | 0.03 | 60 | 1017.9 |
| 20260901143711 | 72 | 259 | 2.0 | 5.0 | 0.00 | 0.03 | 0.03 | 61 | 1017.9 |
| 20260901142711 | 72 | 350 | 3.0 | 8.0 | 0.00 | 0.03 | 0.03 | 63 | 1018.1 |
| 20260901141711 | 72 | 294 | 4.0 | 10.0 | 0.00 | 0.03 | 0.03 | 61 | 1018.2 |
| 20260901140711 | 73 | 280 | 3.0 | 9.0 | 0.00 | 0.03 | 0.03 | 62 | 1018.0 |
| 20260901135711 | 72 | 276 | 2.0 | 7.0 | 0.00 | 0.03 | 0.03 | 65 | 1018.1 |
| 20260901134711 | 71 | 292 | 3.0 | 7.0 | 0.00 | 0.03 | 0.03 | 64 | 1018.1 |
| 20260901133711 | 72 | 328 | 2.0 | 8.0 | 0.00 | 0.03 | 0.03 | 65 | 1018.1 |
| 20260901132711 | 72 | 253 | 4.0 | 9.0 | 0.00 | 0.03 | 0.03 | 66 | 1018.2 |
| 20260901131711 | 71 | 358 | 3.0 | 9.0 | 0.00 | 0.03 | 0.03 | 69 | 1018.3 |
| 20260901130711 | 69 | 299 | 4.0 | 9.0 | 0.00 | 0.03 | 0.03 | 72 | 1018.4 |
| 20260901125712 | 68 | 288 | 3.0 | 7.0 | 0.00 | 0.03 | 0.03 | 74 | 1018.3 |
| 20260901124711 | 68 | 230 | 3.0 | 7.0 | 0.00 | 0.03 | 0.03 | 74 | 1018.4 |
| 20260901122712 | 69 | 315 | 4.0 | 10.0 | 0.00 | 0.03 | 0.03 | 72 | 1018.4 |
| 20260901121712 | 70 | 355 | 3.0 | 10.0 | 0.00 | 0.03 | 0.03 | 73 | 1018.3 |
| 20260901120712 | 71 | 269 | 6.0 | 9.0 | 0.00 | 0.03 | 0.03 | 69 | 1018.2 |
| 20260901113710 | 69 | 282 | 4.0 | 10.0 | 0.00 | 0.03 | 0.03 | 78 | 1018.2 |
| 20260901112710 | 68 | 249 | 3.0 | 8.0 | 0.00 | 0.03 | 0.03 | 78 | 1018.3 |
| 20260901111710 | 68 | 279 | 3.0 | 10.0 | 0.00 | 0.03 | 0.03 | 79 | 1018.3 |
| 20260901110710 | 67 | 251 | 6.0 | 10.0 | 0.00 | 0.03 | 0.03 | 81 | 1018.3 |
| 20260901105710 | 67 | 188 | 4.0 | 8.0 | 0.00 | 0.10 | 0.03 | 82 | 1018.2 |
| 20260901104710 | 65 | 259 | 6.0 | 10.0 | 0.01 | 0.10 | 0.03 | 84 | 1018.2 |
| 20260901103710 | 65 | 267 | 4.0 | 7.0 | 0.02 | 0.10 | 0.03 | 85 | 1018.4 |
| 20260901102710 | 64 | 255 | 3.0 | 6.0 | 0.03 | 0.10 | 0.03 | 87 | 1018.3 |
| 20260901100710 | 63 | 302 | 3.0 | 7.0 | 0.03 | 0.10 | 0.03 | 88 | 1018.4 |
| 20260901094710 | 63 | 240 | 6.0 | 11.0 | 0.02 | 0.09 | 0.02 | 85 | 1018.2 |
| 20260901093710 | 64 | 327 | 5.0 | 11.0 | 0.02 | 0.09 | 0.02 | 85 | 1018.1 |
| 20260901092711 | 64 | 253 | 4.0 | 9.0 | 0.00 | 0.07 | 0.00 | 84 | 1017.9 |
| 20260901091710 | 64 | 247 | 5.0 | 9.0 | 0.00 | 0.07 | 0.00 | 84 | 1017.9 |
| 20260901090711 | 64 | 251 | 4.0 | 9.0 | 0.00 | 0.07 | 0.00 | 84 | 1017.9 |
| 20260901084711 | 63 | 258 | 6.0 | 11.0 | 0.00 | 0.08 | 0.00 | 85 | 1017.8 |
| 20260901083711 | 63 | 228 | 6.0 | 12.0 | 0.00 | 0.08 | 0.00 | 85 | 1017.9 |
| 20260901081711 | 63 | 178 | 4.0 | 11.0 | 0.00 | 0.08 | 0.00 | 86 | 1017.7 |
| 20260901080711 | 63 | 259 | 6.0 | 12.0 | 0.00 | 0.08 | 0.00 | 86 | 1017.5 |
| 20260901075711 | 63 | 242 | 3.0 | 6.0 | 0.00 | 0.08 | 0.00 | 87 | 1017.5 |
| 20260901073711 | 63 | 197 | 3.0 | 9.0 | 0.00 | 0.08 | 0.00 | 88 | 1017.3 |
| 20260901071711 | 62 | 209 | 3.0 | 10.0 | 0.00 | 0.08 | 0.00 | 88 | 1017.1 |
| 20260901070711 | 62 | 242 | 3.0 | 7.0 | 0.00 | 0.08 | 0.00 | 89 | 1017.1 |
| 20260901065711 | 62 | 269 | 3.0 | 10.0 | 0.00 | 0.08 | 0.00 | 89 | 1017.2 |
| 20260901064711 | 61 | 253 | 3.0 | 7.0 | 0.00 | 0.08 | 0.00 | 90 | 1017.1 |
| 20260901062711 | 61 | 263 | 2.0 | 4.0 | 0.00 | 0.08 | 0.00 | 90 | 1017.1 |
| 20260901061711 | 61 | 205 | 2.0 | 6.0 | 0.00 | 0.08 | 0.00 | 90 | 1017.1 |
| 20260901060711 | 60 | 222 | 2.0 | 4.0 | 0.00 | 0.08 | 0.00 | 90 | 1016.8 |
| 20260901055712 | 60 | 232 | 2.0 | 5.0 | 0.00 | 0.08 | 0.00 | 91 | 1016.8 |
| 20260901054711 | 60 | 214 | 3.0 | 7.0 | 0.00 | 0.08 | 0.00 | 91 | 1016.8 |
| 20260901052712 | 60 | 251 | 3.0 | 6.0 | 0.00 | 0.08 | 0.00 | 91 | 1016.7 |
| 20260901045712 | 59 | 253 | 3.0 | 5.0 | 0.00 | 0.08 | 0.00 | 91 | 1016.5 |
| 20260901043712 | 58 | 232 | 2.0 | 5.0 | 0.00 | 0.08 | 0.00 | 90 | 1016.2 |
| 20260901042713 | 58 | 217 | 2.0 | 4.0 | 0.00 | 0.08 | 0.00 | 90 | 1016.0 |
| 20260901041712 | 58 | 210 | 1.0 | 3.0 | 0.00 | 0.08 | 0.00 | 90 | 1016.0 |
| 20260901040712 | 59 | 210 | 1.0 | 4.0 | 0.00 | 0.08 | 0.00 | 90 | 1016.0 |
| 20260901035712 | 58 | 247 | 1.0 | 3.0 | 0.00 | 0.08 | 0.00 | 90 | 1016.0 |
| 20260901034708 | 58 | 240 | 0.0 | 2.0 | 0.00 | 0.08 | 0.00 | 89 | 1015.9 |
| 20260901032709 | 59 | 240 | 1.0 | 2.0 | 0.00 | 0.08 | 0.00 | 88 | 1015.8 |
| 20260901031708 | 59 | 240 | 1.0 | 3.0 | 0.00 | 0.08 | 0.00 | 88 | 1015.8 |
| 20260901030709 | 59 | 240 | 1.0 | 3.0 | 0.00 | 0.08 | 0.00 | 88 | 1015.6 |
| 20260901025708 | 60 | 241 | 2.0 | 4.0 | 0.00 | 0.08 | 0.00 | 88 | 1015.7 |
| 20260901024708 | 60 | 242 | 2.0 | 8.0 | 0.00 | 0.08 | 0.00 | 88 | 1015.7 |
| 20260901023709 | 60 | 242 | 2.0 | 4.0 | 0.00 | 0.08 | 0.00 | 88 | 1015.6 |
| 20260901022709 | 60 | 244 | 2.0 | 6.0 | 0.00 | 0.08 | 0.00 | 88 | 1015.5 |
| 20260901021709 | 60 | 257 | 2.0 | 5.0 | 0.00 | 0.08 | 0.00 | 88 | 1015.6 |
| 20260901020709 | 60 | 224 | 2.0 | 5.0 | 0.00 | 0.08 | 0.00 | 88 | 1015.6 |
| 20260901015709 | 60 | 257 | 2.0 | 7.0 | 0.00 | 0.08 | 0.00 | 88 | 1015.6 |
| 20260901013709 | 60 | 238 | 5.0 | 10.0 | 0.00 | 0.08 | 0.00 | 88 | 1015.5 |
| 20260901012709 | 60 | 246 | 3.0 | 7.0 | 0.00 | 0.08 | 0.00 | 88 | 1015.6 |
| 20260901011709 | 60 | 247 | 3.0 | 8.0 | 0.00 | 0.08 | 0.00 | 87 | 1015.4 |
| 20260901005709 | 60 | 241 | 3.0 | 6.0 | 0.00 | 0.08 | 0.00 | 87 | 1015.5 |
| 20260901004709 | 60 | 221 | 2.0 | 4.0 | 0.00 | 0.08 | 0.00 | 87 | 1015.3 |
| 20260901003709 | 60 | 229 | 2.0 | 5.0 | 0.00 | 0.08 | 0.00 | 87 | 1015.5 |
| 20260901002709 | 60 | 241 | 3.0 | 5.0 | 0.00 | 0.08 | 0.00 | 86 | 1015.5 |
| 20260901001709 | 60 | 256 | 3.0 | 6.0 | 0.00 | 0.08 | 0.00 | 86 | 1015.4 |
| 20260901000709 | 60 | 238 | 3.0 | 5.0 | 0.00 | 0.08 | 0.00 | 86 | 1015.3 |
| 20260831235709 | 60 | 230 | 3.0 | 5.0 | 0.00 | 0.08 | 0.00 | 86 | 1015.3 |
| 20260831234709 | 60 | 241 | 2.0 | 5.0 | 0.00 | 0.08 | 0.00 | 85 | 1015.4 |
| 20260831233709 | 60 | 242 | 2.0 | 5.0 | 0.00 | 0.08 | 0.00 | 85 | 1015.2 |
| 20260831231709 | 60 | 234 | 2.0 | 4.0 | 0.00 | 0.08 | 0.00 | 83 | 1015.3 |
| 20260831225710 | 61 | 242 | 2.0 | 5.0 | 0.00 | 0.08 | 0.00 | 82 | 1015.3 |
| 20260831224709 | 61 | 253 | 3.0 | 7.0 | 0.00 | 0.08 | 0.00 | 82 | 1015.2 |
| 20260831222710 | 61 | 234 | 3.0 | 8.0 | 0.00 | 0.08 | 0.00 | 80 | 1015.1 |
| 20260831220710 | 61 | 254 | 3.0 | 6.0 | 0.00 | 0.08 | 0.00 | 79 | 1014.9 |
| 20260831215710 | 61 | 243 | 3.0 | 6.0 | 0.00 | 0.08 | 0.08 | 79 | 1015.0 |
| 20260831214710 | 61 | 252 | 2.0 | 4.0 | 0.00 | 0.08 | 0.08 | 79 | 1014.9 |
| 20260831213710 | 61 | 275 | 2.0 | 7.0 | 0.00 | 0.08 | 0.08 | 78 | 1014.9 |
| 20260831212710 | 61 | 219 | 2.0 | 5.0 | 0.00 | 0.08 | 0.08 | 78 | 1014.8 |
| 20260831211710 | 61 | 228 | 2.0 | 4.0 | 0.00 | 0.08 | 0.08 | 77 | 1014.8 |
| 20260831210710 | 61 | 228 | 2.0 | 5.0 | 0.00 | 0.08 | 0.08 | 76 | 1014.6 |
| 20260831205710 | 62 | 243 | 1.0 | 4.0 | 0.00 | 0.08 | 0.08 | 75 | 1014.6 |
| 20260831204710 | 62 | 243 | 1.0 | 3.0 | 0.00 | 0.08 | 0.08 | 74 | 1014.5 |
| 20260831203710 | 62 | 243 | 1.0 | 4.0 | 0.00 | 0.08 | 0.08 | 73 | 1014.5 |
| 20260831202710 | 62 | 243 | 3.0 | 5.0 | 0.00 | 0.08 | 0.08 | 73 | 1014.4 |
| 20260831201712 | 62 | 244 | 3.0 | 6.0 | 0.00 | 0.08 | 0.08 | 73 | 1014.3 |